Theta_e
351 352 352 353 353 353 354 353 351 350 350 349 349 350 351 350 349 348 347 347 346 345 345 345 346 346 346 346 346 345 346 345 345 346 347 347 347 348 349 350 350 350 351 352 351 351 352 350 350 349 349 350 350 351 351 350 351 351 351 349 350 351 352 352 352 351 350 350 352 352 351 350 351 351 352 351 349 349 349 347 345 345 342 335 329
351 351 352 352 353 353 353 349 346 347 349 349 349 349 349 347 347 346 345 345 345 345 346 347 347 347 347 347 346 346 346 345 345 346 346 346 346 347 349 349 350 350 351 352 351 351 353 351 351 352 351 351 352 352 351 350 350 351 351 349 350 351 352 352 352 351 350 351 352 353 351 351 351 351 351 350 349 349 348 345 345 343 335 328 327
350 351 352 352 352 353 352 346 343 346 348 348 348 347 346 346 346 346 345 345 346 347 348 349 349 348 348 348 348 348 347 347 349 348 348 348 347 348 348 348 348 349 351 351 351 351 352 352 353 352 351 352 353 352 351 350 350 351 351 350 351 351 352 352 352 352 352 352 352 352 351 351 351 351 350 350 349 349 348 345 344 338 329 328 329
350 351 352 353 352 353 352 346 346 347 346 346 347 346 346 346 346 346 346 347 348 348 349 349 349 349 349 349 348 348 349 350 350 351 350 350 350 349 349 348 347 348 351 351 351 351 352 352 352 352 351 352 352 351 352 350 349 351 350 351 351 351 352 352 352 353 352 352 351 350 350 350 350 350 350 350 349 348 346 345 344 338 330 328 331
350 351 352 353 353 354 351 347 349 349 347 347 347 347 345 344 344 346 346 347 347 348 350 349 349 349 348 349 348 349 350 350 351 351 350 350 350 351 351 350 349 350 352 351 352 352 352 351 351 351 352 352 352 351 351 351 351 350 350 351 351 351 351 352 352 352 351 350 349 349 350 350 350 349 349 349 348 347 346 344 344 339 332 331 336
351 351 352 353 353 353 350 349 350 350 349 348 348 345 341 340 343 346 346 346 346 349 350 349 349 349 349 349 349 349 349 349 350 350 350 351 351 352 352 351 351 351 352 352 352 352 352 352 351 351 352 353 352 351 351 351 350 349 349 350 351 350 350 351 351 350 348 348 348 348 349 350 350 349 349 348 348 347 345 345 343 337 332 334 340
351 352 353 353 353 352 350 350 350 350 348 347 346 340 336 341 345 345 346 347 348 350 349 349 349 349 350 349 349 349 349 350 350 350 351 352 352 353 352 352 352 352 351 351 352 352 352 351 351 352 352 352 352 351 351 350 349 349 349 349 350 349 349 350 350 348 347 347 348 348 348 348 348 348 348 348 348 346 344 345 341 336 334 337 342
352 353 353 353 353 352 351 350 350 350 346 341 338 336 337 343 345 344 346 349 350 350 348 349 349 349 349 349 350 350 351 351 351 352 352 352 353 353 351 352 351 350 350 350 351 351 350 350 351 352 352 351 351 350 351 350 349 348 348 348 349 349 349 350 348 347 346 346 346 346 345 346 347 348 347 347 346 346 345 344 340 337 336 339 343
353 354 353 353 352 350 350 350 350 350 347 338 334 337 340 344 344 344 348 350 349 349 349 350 349 349 349 350 351 351 352 353 353 353 353 353 354 353 351 352 351 349 350 351 351 349 348 350 351 352 351 351 349 349 350 350 348 348 348 349 349 349 349 349 347 346 345 345 344 343 343 343 345 346 346 345 345 345 344 343 340 337 337 341 344
353 353 353 351 350 349 349 349 349 348 346 338 336 340 343 345 344 346 349 350 350 350 349 349 349 349 350 350 351 351 352 353 354 353 353 353 354 353 351 352 351 349 349 350 350 349 349 351 352 352 351 350 350 350 350 350 349 349 350 350 349 349 348 346 345 344 344 344 343 342 342 341 342 344 344 344 343 342 341 339 337 336 339 342 344
353 352 350 349 348 348 348 348 347 345 342 338 340 343 345 345 346 348 351 350 350 350 349 349 350 350 350 351 351 352 352 353 353 354 353 352 353 352 351 351 350 350 350 351 350 349 350 351 351 351 351 350 350 351 350 351 351 351 351 350 347 346 345 344 344 344 344 344 342 340 337 338 342 343 342 341 342 342 341 338 337 339 342 344 344
352 351 349 348 349 349 350 349 344 342 340 340 343 345 345 345 348 351 351 350 350 349 349 348 350 350 350 350 351 351 352 353 352 352 353 352 352 352 352 351 350 351 351 350 349 348 350 351 352 351 351 351 351 351 351 351 351 352 351 349 345 343 343 343 344 344 343 341 339 337 336 337 342 343 341 342 344 343 341 339 340 342 343 344 344
352 350 349 349 351 351 352 351 345 343 344 345 345 345 344 348 351 352 351 350 350 349 348 347 349 350 350 350 350 351 352 352 351 351 352 352 353 352 351 351 351 351 350 350 349 349 350 351 351 351 350 350 350 351 351 350 350 351 350 347 344 341 341 343 343 342 341 339 339 339 339 340 342 343 343 344 344 342 339 340 342 343 344 343 344
351 350 349 350 352 352 353 353 349 348 349 347 345 344 346 350 352 352 351 350 349 349 348 348 349 350 350 350 351 352 351 351 350 350 352 352 352 352 352 352 351 351 349 350 350 350 350 350 351 351 350 350 349 349 350 350 350 350 349 346 343 341 341 343 343 342 341 341 341 340 340 341 342 343 343 343 342 341 341 342 343 343 343 343 343
351 351 351 352 352 352 352 353 352 351 350 347 344 345 348 351 351 351 351 350 349 348 348 350 350 351 351 351 351 351 351 350 350 351 352 352 352 352 352 352 351 351 349 350 351 350 350 350 350 351 351 350 349 349 350 350 350 350 349 347 343 341 341 343 343 342 341 341 340 339 340 341 340 341 341 341 341 342 342 343 344 343 343 344 343
351 351 352 353 353 352 352 352 352 352 351 346 342 345 349 350 351 352 351 350 349 349 350 351 351 352 351 351 351 351 350 350 351 351 352 352 352 352 352 351 351 351 349 350 351 351 351 350 350 351 351 350 349 350 349 349 349 349 349 348 344 342 341 343 343 342 341 340 339 338 340 341 340 339 339 340 342 342 342 343 344 344 344 344 343
351 352 353 353 353 353 352 352 352 352 350 344 341 344 348 349 350 351 351 350 349 350 351 351 351 351 351 351 351 352 351 350 351 351 351 352 352 352 352 351 350 349 348 349 349 350 351 351 350 351 351 350 349 350 349 349 349 349 349 348 346 343 342 343 344 342 340 339 338 338 340 341 340 340 340 340 341 341 342 343 344 344 345 344 344
351 352 353 353 353 353 352 352 352 350 346 341 341 345 348 349 350 350 350 349 349 349 350 351 351 351 351 351 351 351 350 350 351 351 351 352 352 352 352 350 349 349 348 349 349 350 351 350 350 351 351 350 349 349 350 349 349 350 349 347 345 343 341 342 343 342 341 340 338 338 340 341 341 341 341 340 340 341 342 344 345 345 346 345 345
350 351 352 353 354 353 352 352 350 346 343 341 343 346 349 349 350 350 350 349 348 348 349 350 351 351 352 351 351 351 350 351 351 351 351 352 352 351 350 349 348 349 348 348 349 350 350 350 351 351 350 350 349 350 350 350 350 350 349 347 344 342 340 340 342 343 342 341 340 341 342 342 342 342 343 342 342 343 344 344 345 346 346 346 345
350 351 352 353 353 352 351 349 346 345 344 345 347 350 350 350 350 350 349 348 347 348 349 351 352 351 351 352 351 352 352 351 352 352 351 350 350 350 350 349 349 348 347 346 348 349 350 350 351 351 350 349 349 349 349 349 349 349 348 347 344 341 340 339 341 343 343 343 342 343 343 343 343 343 344 345 344 345 345 345 346 345 345 345 345
351 351 352 352 351 351 349 347 345 346 347 348 350 351 351 350 351 350 349 349 348 349 350 351 353 352 352 352 351 351 351 351 351 351 349 348 348 349 350 350 349 347 346 346 347 349 350 351 351 351 350 349 349 349 349 349 349 349 348 346 342 341 340 339 340 341 343 343 343 344 344 345 345 345 345 345 346 346 346 346 346 345 345 345 346
351 351 351 351 350 349 348 346 346 347 349 350 350 350 351 350 350 350 350 350 350 350 350 351 352 352 353 352 351 351 351 351 350 349 349 347 348 349 349 349 348 347 346 345 347 348 348 350 350 349 349 349 349 349 349 349 349 349 346 343 341 341 341 340 340 340 341 343 344 344 345 346 347 347 346 347 347 348 347 346 346 345 345 345 346
351 351 350 349 349 348 348 347 348 349 350 350 350 350 350 350 350 350 350 350 351 351 351 352 352 352 353 352 351 350 350 351 350 349 349 348 348 347 349 349 348 348 347 344 346 347 348 349 350 349 349 349 349 349 349 349 348 346 342 340 340 340 340 341 340 340 340 341 343 344 346 347 348 348 347 347 347 347 347 345 346 345 345 346 345
351 350 349 349 349 348 349 349 349 350 350 349 350 351 351 349 349 350 351 350 351 351 351 352 351 352 352 351 351 350 349 350 350 349 349 348 348 347 348 348 348 348 347 344 345 346 347 348 349 348 348 348 348 348 348 348 346 342 341 340 340 340 340 340 340 340 340 340 341 342 344 345 346 346 347 347 346 346 345 345 346 345 345 345 345
349 349 349 350 349 350 350 350 349 349 349 349 351 352 351 350 350 350 350 350 352 352 352 352 351 351 351 350 350 350 349 349 350 349 348 347 347 347 346 345 346 346 345 343 343 344 345 346 347 347 348 348 348 347 347 346 344 343 342 340 340 340 340 340 340 340 340 340 341 342 343 343 344 344 345 345 345 345 345 345 345 345 345 345 344
349 349 350 351 351 351 351 350 349 349 349 350 352 352 351 351 350 350 350 351 352 352 352 351 351 350 349 349 349 349 348 348 349 348 347 346 345 346 345 344 344 344 343 342 342 341 342 345 346 346 347 348 349 349 348 346 345 345 344 342 342 341 340 340 340 340 340 340 340 342 343 343 343 343 344 344 344 344 344 344 345 345 345 345 344
350 350 350 351 351 351 351 350 349 349 350 351 353 352 351 351 351 351 350 351 351 351 351 349 348 348 348 348 348 347 347 348 348 347 347 345 344 344 343 343 343 342 342 341 342 341 343 344 345 346 347 348 349 350 350 348 346 346 345 345 344 343 341 340 340 340 339 339 340 341 342 343 343 343 343 343 344 344 344 344 345 345 345 345 345
351 351 351 351 351 351 350 350 350 350 351 352 353 352 351 351 351 351 350 350 350 350 348 347 347 347 346 346 346 347 347 347 347 346 346 345 344 343 342 343 343 343 343 343 344 345 347 347 347 348 348 349 349 349 349 349 347 346 346 346 346 344 343 340 339 339 337 336 337 339 339 340 340 342 343 345 344 344 344 344 344 345 345 346 345
351 352 352 351 351 350 350 350 350 350 351 352 353 352 351 351 351 350 349 348 349 348 346 346 347 346 345 345 346 346 346 346 346 346 345 344 343 342 342 344 345 345 345 346 347 349 349 349 349 350 349 350 349 349 349 349 348 347 346 346 346 345 343 339 338 337 335 335 335 336 338 338 337 340 343 345 345 344 344 344 345 345 345 345 344
351 352 352 351 350 350 350 350 350 350 351 352 353 352 351 351 351 349 347 347 347 346 346 346 346 346 346 345 345 344 344 344 344 344 343 343 342 341 343 345 346 346 346 347 348 349 350 349 350 350 350 349 349 349 348 348 348 347 346 345 346 346 343 339 337 337 336 336 336 337 339 338 337 339 341 342 343 344 344 345 345 344 343 343 343
351 352 352 351 350 349 349 349 350 351 351 352 352 351 351 350 350 348 346 345 345 345 346 346 346 347 347 346 343 341 342 344 345 343 342 342 341 341 344 345 345 346 347 348 348 349 349 349 351 350 349 348 347 348 347 347 346 345 345 345 346 346 345 340 337 338 338 337 337 337 339 340 340 341 341 341 341 341 342 342 343 342 342 342 342
351 351 352 351 350 349 349 350 350 350 351 352 351 350 350 349 349 347 345 344 344 345 346 345 346 347 348 346 344 342 343 346 347 345 344 342 341 341 342 344 345 347 348 348 348 349 349 351 352 351 349 347 347 346 346 345 345 344 344 345 345 346 346 343 338 337 338 338 338 338 338 340 343 345 344 342 340 339 339 340 342 343 343 342 342
351 351 351 351 350 349 350 350 350 350 350 351 350 349 349 348 348 347 345 345 345 346 346 345 346 347 348 348 347 347 346 347 348 347 346 345 344 343 344 345 347 348 348 348 349 349 350 351 351 351 349 348 347 347 346 345 344 345 344 344 345 345 346 345 342 339 338 338 339 339 339 339 341 344 344 342 341 342 343 343 344 344 344 344 344
351 351 351 351 350 349 350 350 349 349 350 350 349 348 347 347 347 347 346 346 347 347 346 346 346 347 348 349 349 349 349 348 348 348 347 347 347 346 346 348 348 349 349 349 350 350 350 351 351 350 350 349 348 347 347 346 345 345 345 345 345 346 346 346 345 342 340 339 338 339 339 340 340 341 342 342 343 344 345 345 345 345 345 345 345
350 350 350 350 350 350 350 349 349 349 349 349 347 346 347 346 346 347 347 347 348 347 346 346 347 348 349 350 350 350 349 349 348 348 348 348 347 348 348 348 349 350 350 350 350 350 350 350 350 350 350 349 348 347 346 346 345 345 345 345 345 345 346 346 347 345 343 341 340 340 339 340 340 340 341 341 341 342 343 344 345 345 345 345 345
350 350 350 350 351 350 350 349 348 348 349 348 347 346 345 346 346 347 347 347 348 348 347 346 346 348 349 350 351 350 349 348 348 348 348 348 348 348 349 349 349 350 350 350 350 350 350 350 350 350 349 349 348 346 344 344 345 345 345 345 345 345 346 346 346 346 346 345 343 341 341 341 341 341 341 340 341 341 341 342 343 344 344 344 345
350 350 349 350 351 350 351 351 348 347 348 347 346 345 345 345 347 348 348 348 348 348 347 347 347 348 349 350 351 350 349 348 348 348 348 349 348 349 350 350 350 350 350 350 349 350 349 350 351 350 350 349 348 345 343 343 344 345 345 345 346 345 345 346 346 346 346 346 345 344 343 342 342 342 342 342 342 342 341 341 341 341 342 342 343
351 350 349 350 350 351 352 352 349 346 346 347 345 345 345 345 347 349 350 350 349 348 348 348 347 347 348 349 350 350 349 349 349 348 350 350 350 350 350 351 351 350 350 349 348 348 349 351 351 350 350 350 348 345 343 343 343 344 345 345 346 346 345 345 345 346 346 346 346 346 345 344 343 344 343 344 343 343 343 342 342 341 340 340 340
351 351 350 350 350 351 353 353 352 348 346 346 345 345 345 345 348 350 351 351 350 350 349 348 348 347 348 348 349 349 349 349 349 349 349 350 351 351 351 351 351 351 350 349 348 348 349 351 351 350 350 350 348 346 345 343 344 344 345 345 346 346 345 345 346 346 346 346 346 346 345 345 344 344 344 344 344 344 344 343 342 341 340 339 340
352 352 352 351 352 352 353 353 353 350 347 347 347 346 346 347 349 351 352 351 350 350 349 348 348 348 348 348 348 348 349 349 350 349 349 349 350 351 351 351 351 351 350 349 348 348 349 351 351 351 350 350 348 347 345 344 344 344 344 346 346 346 345 345 345 345 346 345 346 345 345 345 344 344 343 343 344 344 345 344 342 341 341 341 340
351 352 353 352 352 353 353 353 353 352 348 348 348 347 347 349 351 352 351 350 350 350 349 348 348 347 349 349 347 348 349 349 350 350 349 349 350 351 351 351 351 351 350 349 348 348 349 351 351 352 350 349 349 347 345 344 344 344 345 345 345 345 345 345 344 344 344 345 345 345 345 345 345 344 344 343 343 343 344 344 343 342 342 342 342
351 352 352 353 352 352 353 353 353 353 349 347 348 347 349 351 351 351 350 350 350 349 349 348 348 347 349 350 349 348 348 349 350 350 350 350 351 351 351 351 351 350 350 349 348 348 349 351 352 352 351 350 349 347 344 343 344 344 343 344 345 345 343 343 344 343 344 344 344 345 345 344 343 343 344 343 343 343 343 344 344 343 343 343 343
351 352 352 353 353 352 352 352 352 353 350 347 348 349 350 351 351 350 349 349 349 349 348 348 347 347 349 351 351 350 349 348 350 350 350 351 351 351 350 351 351 351 351 350 349 349 350 350 351 352 352 351 350 348 345 345 345 343 343 347 347 347 348 344 342 343 343 343 343 343 344 344 343 342 343 343 342 342 342 343 343 343 343 343 344
350 351 352 352 353 352 352 352 352 352 350 347 349 350 351 351 351 350 349 349 348 348 347 347 348 348 348 351 352 351 350 349 350 350 350 351 352 351 350 351 351 351 352 350 349 349 349 349 350 353 352 351 351 349 347 346 345 342 345 349 345 347 355 349 343 342 342 343 343 343 344 344 343 341 341 341 341 342 342 343 343 342 343 343 343
350 350 351 352 352 352 352 351 351 351 349 347 349 351 351 351 350 350 349 349 348 348 348 348 349 348 349 351 351 351 351 351 351 350 350 351 351 350 350 351 351 352 352 350 349 349 349 349 351 353 353 352 351 350 349 347 346 343 344 347 345 350 355 346 344 346 342 342 343 343 343 343 343 342 341 341 340 341 341 342 343 343 343 343 343
349 350 350 352 352 352 352 351 351 350 348 347 350 351 351 350 349 349 348 348 348 349 349 349 349 349 350 351 351 350 351 352 351 350 350 351 351 351 350 350 352 353 353 351 350 350 349 350 351 353 353 353 352 351 350 348 348 346 344 345 346 349 349 345 348 350 344 341 341 342 342 341 341 341 341 341 340 341 341 341 343 343 343 342 342
349 349 350 351 351 352 352 351 351 350 348 347 350 351 351 350 349 349 348 347 348 348 347 347 348 349 350 351 350 350 351 351 351 350 349 351 352 351 351 351 352 353 353 353 352 351 350 350 350 351 352 353 352 351 351 350 349 348 346 346 346 347 347 347 350 350 348 346 341 339 341 340 340 340 340 341 341 340 340 341 342 342 343 343 342
348 349 349 350 351 351 351 351 351 350 348 347 350 351 351 350 349 348 348 347 347 346 346 346 347 348 349 350 351 351 351 350 350 349 348 350 351 351 352 351 352 353 353 353 353 352 352 351 350 349 350 353 353 352 351 350 350 349 347 347 347 347 346 345 346 345 346 351 348 342 341 341 341 341 340 340 340 340 340 341 341 342 342 342 343
348 348 349 349 350 351 351 351 350 349 348 348 350 351 351 349 348 348 348 347 346 346 346 345 346 348 349 350 350 351 352 350 349 348 347 348 349 351 353 352 352 353 353 354 353 353 353 351 350 349 350 353 354 353 351 350 350 349 348 347 347 347 346 342 342 343 344 351 354 347 342 343 343 341 341 340 340 340 340 340 341 341 341 342 342
348 348 349 349 349 350 350 350 350 349 349 349 350 351 350 349 348 348 347 346 346 346 345 346 347 348 348 349 349 350 352 350 349 349 347 347 348 350 352 352 352 353 354 354 354 354 353 352 352 351 350 352 353 352 352 351 349 348 349 348 347 347 346 342 341 342 342 343 347 344 341 344 345 343 342 342 342 341 340 340 341 341 341 341 341
347 348 348 349 349 349 350 350 351 350 350 349 350 350 350 349 348 347 348 347 346 345 345 346 347 349 349 349 349 349 351 350 349 349 348 347 348 348 350 352 353 354 354 354 354 354 354 353 353 352 351 352 352 352 353 352 349 349 350 349 348 348 347 344 343 345 345 343 344 344 342 343 344 343 343 343 343 342 342 340 341 341 341 341 341
Wind_Speed
17 18 18 17 18 18 17 17 17 19 19 19 20 19 19 19 19 19 18 18 17 17 16 15 15 14 14 14 13 13 13 13 12 12 11 11 10 10 10 10 10 10 9 8 9 9 9 9 10 10 11 11 12 12 13 14 13 13 13 13 13 13 13 13 13 14 14 14 14 14 15 15 15 16 16 16 17 17 19 20 20 21 19 17 17
19 19 19 19 19 18 17 17 17 17 17 18 19 19 19 19 19 18 18 17 17 16 15 15 14 14 14 14 14 14 14 13 13 13 12 12 11 10 10 10 10 9 9 8 9 10 9 9 10 10 11 12 12 12 14 14 14 13 13 13 12 12 13 14 14 14 14 14 14 14 15 15 15 16 16 16 17 17 19 20 21 21 19 18 19
21 20 19 20 20 19 18 17 18 17 16 17 19 19 19 18 18 18 17 16 16 15 15 15 14 14 14 14 14 13 13 13 12 12 12 12 11 11 10 10 9 9 8 8 9 10 10 10 10 11 11 12 12 13 14 14 14 14 13 13 12 13 14 14 14 15 15 15 15 16 16 16 16 16 17 17 17 18 19 20 20 21 20 20 20
21 21 20 20 20 20 18 18 18 16 15 16 18 18 18 17 17 16 16 15 15 14 14 14 14 14 13 13 13 12 12 12 11 11 11 11 11 11 11 10 9 9 8 9 9 10 10 10 10 11 12 12 12 12 14 14 14 14 14 12 12 13 13 14 14 15 16 16 17 18 18 18 17 17 17 17 17 19 20 19 20 20 19 20 20
22 21 22 21 20 20 18 18 17 16 15 15 17 16 16 16 16 15 14 14 13 13 13 13 13 13 13 12 12 12 11 11 11 10 10 10 10 10 10 10 9 10 9 9 10 10 9 9 9 10 11 12 12 12 13 13 13 14 14 13 13 13 14 14 14 15 17 18 19 20 20 19 18 16 17 18 18 19 20 19 19 19 18 18 18
23 22 22 21 20 20 18 18 16 16 15 15 16 15 16 15 14 13 12 12 12 12 12 12 12 12 12 12 11 11 10 11 10 10 10 11 11 10 10 10 10 10 10 10 10 10 9 9 8 9 10 12 13 13 13 13 13 14 14 13 13 14 14 14 14 16 18 20 21 21 20 20 19 18 17 18 18 19 19 19 18 17 17 17 16
23 22 22 21 20 19 18 18 16 16 14 15 15 15 15 13 12 12 11 11 11 11 11 12 11 11 11 11 11 10 10 10 10 10 11 11 11 11 11 10 11 11 11 11 11 10 9 9 8 9 10 11 13 13 12 12 13 14 14 14 14 14 15 14 15 17 19 21 21 21 20 19 20 19 18 18 18 18 18 17 17 17 16 15 15
22 22 21 21 20 19 19 18 17 16 14 14 15 15 14 12 11 11 11 10 11 11 11 11 11 10 10 10 10 10 9 10 11 11 12 12 12 11 10 10 11 11 11 11 10 10 9 9 9 9 10 11 11 13 12 12 13 13 14 14 13 14 15 15 17 18 18 20 20 20 20 19 19 18 17 17 17 16 16 16 16 16 15 14 13
22 21 21 21 20 20 19 18 17 16 15 15 16 14 13 11 10 9 10 9 10 11 11 10 10 10 10 10 10 10 10 10 11 11 12 12 12 11 10 11 11 11 11 10 10 10 9 9 10 10 11 10 10 12 13 12 12 12 13 14 14 15 15 16 17 18 18 19 20 19 19 18 18 17 16 16 15 15 15 15 15 15 14 13 12
22 21 21 21 20 20 19 18 17 16 15 15 15 13 12 11 9 9 9 9 10 11 10 10 10 10 10 10 10 10 10 10 11 11 11 12 12 12 11 10 11 12 12 11 10 10 9 10 11 12 11 10 10 11 12 11 12 13 14 15 15 15 15 16 17 18 19 19 19 18 18 17 17 16 16 15 16 16 15 15 15 14 13 12 12
23 22 22 21 20 19 18 17 16 16 16 16 14 13 12 10 9 9 8 9 9 10 10 10 10 10 10 11 11 10 10 10 10 11 11 11 11 12 11 9 11 12 11 11 10 10 9 10 11 12 11 10 11 12 12 11 12 13 14 15 16 16 15 16 17 18 18 18 18 18 17 16 16 15 15 16 16 16 15 14 14 14 13 12 11
24 23 22 21 19 18 18 16 17 16 16 16 14 12 11 10 9 8 8 9 9 9 9 9 9 9 10 10 10 10 10 9 9 10 11 11 10 11 11 10 11 11 10 10 10 10 9 9 10 11 11 10 11 11 11 11 12 12 13 14 15 15 15 16 16 17 17 17 18 17 17 16 16 15 15 15 15 15 14 14 13 13 12 12 12
25 23 22 21 19 18 18 16 16 16 16 15 13 12 11 10 8 8 9 9 9 8 8 8 9 9 9 9 9 9 9 9 9 10 10 10 10 11 11 10 10 10 10 10 10 10 10 10 10 10 11 11 10 10 11 11 11 12 13 14 14 14 14 15 15 16 17 17 17 17 16 16 15 14 14 14 14 14 14 13 13 12 12 12 11
24 23 22 20 19 18 17 16 16 16 15 14 13 12 10 10 9 9 9 9 9 8 8 8 8 8 8 8 8 8 8 9 9 9 10 9 10 10 10 10 10 10 10 10 10 10 10 11 11 11 11 11 10 10 10 11 11 12 14 14 14 13 13 14 15 15 16 16 16 16 15 15 14 13 13 13 13 13 13 13 12 12 11 11 10
24 23 21 19 19 18 16 16 16 16 15 13 13 12 10 9 9 9 9 9 8 8 9 8 8 7 8 8 8 8 8 9 9 9 9 9 10 10 10 9 10 10 10 10 10 10 11 11 12 11 11 11 11 10 10 11 11 12 13 13 12 12 12 14 15 15 15 16 15 15 14 14 13 13 12 12 12 12 12 12 11 11 10 10 10
23 22 21 19 18 18 16 15 15 16 14 13 13 11 10 9 9 8 8 9 9 9 8 8 8 8 8 8 8 8 8 9 10 9 9 8 9 10 9 9 10 10 10 10 10 10 11 11 12 12 11 11 11 11 11 11 11 11 12 12 11 11 12 13 14 14 14 15 14 14 13 13 12 12 12 11 11 11 11 11 10 10 9 9 9
23 22 20 18 18 17 17 16 15 14 13 12 12 11 10 9 9 8 8 8 9 8 8 8 8 8 8 8 8 8 9 9 9 9 9 8 8 9 9 9 10 10 9 9 9 10 11 11 11 11 11 11 11 11 11 11 11 11 11 11 10 11 11 12 13 13 13 14 14 13 12 12 12 11 11 11 11 10 10 10 9 8 8 9 9
22 21 19 18 17 16 16 15 14 13 12 12 11 10 9 9 9 8 8 8 8 8 8 8 8 8 8 8 8 8 9 9 9 9 10 9 8 9 9 10 10 9 9 8 9 10 10 11 11 11 11 11 11 11 11 11 11 11 11 10 9 10 10 10 11 12 12 12 13 13 12 11 10 10 10 10 10 10 9 9 8 7 7 8 8
21 20 19 17 17 16 16 15 13 13 12 12 11 10 9 9 8 8 8 8 7 7 7 8 8 8 8 8 8 8 9 9 8 8 9 9 9 9 9 9 9 9 9 8 9 9 10 11 11 11 11 11 11 10 10 10 10 10 10 9 8 9 9 9 10 11 11 11 11 11 11 10 9 9 9 9 9 9 8 7 7 7 7 7 7
20 20 18 17 16 16 15 14 14 13 12 12 12 11 10 9 8 8 8 7 7 7 8 7 7 8 8 8 8 9 8 8 9 8 9 9 9 9 8 9 9 9 9 8 9 10 10 11 11 10 10 11 10 10 10 10 10 10 9 9 8 8 8 8 9 9 9 10 10 10 10 9 9 8 8 8 7 7 7 6 6 6 6 6 6
19 19 18 17 16 15 15 14 14 13 13 13 12 11 11 10 9 9 8 8 8 8 8 8 7 7 8 8 9 9 8 8 9 8 9 9 8 8 8 8 9 8 8 8 9 10 9 10 11 10 10 10 10 9 9 9 9 9 8 7 6 7 8 7 7 7 7 9 9 9 8 8 7 7 6 6 6 6 6 5 5 5 5 6 6
18 18 17 17 16 15 14 14 14 13 13 13 13 12 11 11 10 10 9 9 8 9 9 8 8 8 8 9 9 9 8 7 8 9 9 9 8 8 8 8 8 8 8 8 8 9 9 9 10 10 10 9 9 9 9 9 9 9 7 6 5 6 6 7 6 6 6 8 8 8 7 5 6 6 6 5 5 5 5 4 4 4 4 5 5
19 18 17 16 15 15 14 14 14 14 14 14 13 12 11 11 11 11 10 10 9 9 9 9 9 8 8 9 9 9 8 7 8 9 9 9 8 8 8 8 8 8 8 8 8 7 8 9 9 9 10 9 9 8 8 8 8 7 6 5 6 6 6 6 6 6 6 7 8 7 6 4 4 5 5 4 4 4 3 3 3 3 4 4 5
20 19 18 17 16 15 15 15 15 15 15 14 14 12 12 13 12 12 11 10 9 9 9 9 9 8 9 9 9 9 9 8 8 8 8 9 8 8 7 8 8 8 8 8 8 7 7 8 8 9 9 9 8 8 6 5 5 5 5 4 5 6 6 5 5 6 6 6 6 5 5 4 3 4 3 3 3 2 2 2 2 2 3 3 4
21 19 18 18 17 16 16 17 16 15 15 15 14 13 14 14 13 12 11 11 10 10 10 9 9 9 9 9 9 9 9 8 8 8 8 7 8 7 7 7 7 7 7 8 7 6 6 6 7 7 7 8 8 7 5 4 4 4 4 4 5 5 5 5 4 5 5 5 5 5 4 4 3 3 2 2 2 1 1 1 1 2 2 3 3
20 19 18 18 18 16 17 18 17 16 16 15 14 14 14 14 13 12 12 12 11 11 10 9 9 9 9 9 9 9 9 9 8 7 7 6 7 6 6 6 6 7 8 7 6 5 5 5 5 5 5 6 6 6 4 3 3 3 3 4 4 4 4 4 4 4 4 4 5 5 5 4 4 3 3 2 2 2 1 0 1 1 2 2 3
20 20 19 18 18 17 18 18 18 17 16 15 14 14 15 14 13 13 12 12 12 11 10 10 10 10 10 9 9 9 9 8 7 7 6 6 6 6 6 6 7 8 8 7 6 5 4 4 3 3 3 3 4 4 3 3 3 3 2 3 3 3 3 3 3 2 3 3 4 4 4 4 4 4 3 2 2 2 1 0 0 1 1 2 2
21 20 19 18 19 19 19 19 19 18 17 16 15 15 15 14 14 13 12 12 12 11 11 10 10 10 10 9 9 9 9 7 7 6 6 6 6 6 6 7 8 8 8 7 6 5 4 3 2 2 2 3 4 3 3 2 3 4 4 3 2 2 2 2 1 1 2 2 3 3 4 4 4 4 3 2 2 1 1 0 0 1 1 2 2
21 21 20 19 20 20 20 20 20 18 18 17 16 16 15 14 14 13 13 12 12 11 11 10 10 10 10 9 9 8 8 8 7 6 6 6 6 6 7 7 8 7 7 6 4 4 3 2 2 1 2 3 4 4 4 3 3 4 4 4 2 2 2 1 1 2 2 2 2 2 3 2 3 4 3 2 1 1 1 1 1 1 1 2 2
22 21 21 21 21 20 20 21 20 19 19 17 17 16 16 15 14 13 13 13 12 11 10 9 10 10 10 9 9 8 8 8 8 7 6 6 6 7 7 7 7 6 5 4 3 3 2 1 1 1 1 3 4 5 5 4 4 4 4 4 2 2 1 1 2 3 3 3 3 2 3 2 2 3 2 1 1 1 1 2 2 2 2 1 2
22 21 22 22 22 21 21 21 21 20 19 18 17 17 16 16 15 14 13 13 12 11 10 9 10 9 8 9 9 9 9 8 7 7 7 7 7 7 7 7 5 4 4 3 3 1 1 1 1 2 2 3 3 4 4 4 4 4 4 3 3 2 2 2 3 4 4 4 4 4 3 3 2 2 1 1 1 1 1 1 1 1 1 2 2
22 23 22 22 23 22 21 21 21 20 20 19 18 18 17 16 15 14 14 13 12 11 10 10 9 8 8 8 8 9 8 7 6 7 7 7 7 6 6 6 4 4 3 3 2 1 1 2 2 3 3 3 3 3 3 3 4 4 4 4 4 3 3 3 4 4 4 4 5 5 4 4 3 2 2 2 2 1 1 1 1 2 2 2 2
23 23 22 22 23 23 23 22 22 21 21 20 19 18 17 17 16 15 14 13 12 11 11 10 9 8 8 8 8 8 7 6 6 6 6 6 6 6 6 5 4 4 3 3 2 1 0 1 2 3 3 3 3 4 3 3 3 4 4 5 5 5 4 4 4 4 5 5 6 6 5 4 3 3 3 3 3 3 2 2 3 3 3 4 4
23 23 23 23 24 24 23 23 22 22 21 20 19 19 18 17 16 15 15 14 13 12 11 10 9 9 8 8 7 7 6 6 5 6 6 6 6 6 6 5 4 4 4 3 2 2 1 1 1 2 3 4 5 4 4 4 4 5 5 5 6 6 6 5 5 4 5 5 6 6 6 5 5 5 5 5 5 4 4 4 4 4 5 5 5
24 24 24 24 24 24 24 23 23 22 21 20 20 20 19 18 17 16 15 14 13 12 11 10 10 10 9 8 7 6 6 5 5 6 6 6 6 6 6 5 4 4 4 3 3 2 2 2 2 3 4 4 5 5 5 5 6 6 5 6 6 7 7 7 6 6 5 5 6 6 6 6 6 7 7 7 7 6 6 6 6 6 6 6 6
25 25 25 25 24 24 24 23 23 22 21 21 20 20 19 18 17 16 15 14 13 12 12 11 11 10 9 8 8 6 6 6 6 7 7 7 7 6 5 5 5 5 4 4 4 3 3 3 3 4 4 5 5 5 5 4 6 6 6 7 7 7 8 7 7 7 6 6 7 7 7 7 7 7 8 8 8 8 8 8 8 7 7 7 7
26 27 26 26 25 24 23 23 24 23 22 21 21 20 19 18 17 15 14 14 13 13 12 12 12 12 10 9 8 7 7 6 7 7 8 8 7 7 6 5 5 5 5 5 5 5 4 4 4 4 4 4 4 5 4 3 5 6 7 7 7 7 8 8 8 8 8 7 7 7 7 7 7 8 8 8 8 8 8 8 8 8 8 8 8
27 27 27 27 26 25 24 24 24 23 22 22 21 20 20 19 17 15 14 13 13 13 13 13 13 13 12 11 10 8 8 7 8 8 8 8 7 7 6 6 6 6 6 5 5 6 6 6 5 4 4 3 2 3 3 3 5 6 6 7 7 7 7 8 9 10 9 8 8 7 7 7 7 7 7 7 7 7 7 7 8 8 8 8 8
28 27 28 27 26 26 25 24 24 23 23 22 21 20 20 19 18 16 14 14 13 13 14 14 14 14 13 12 12 10 9 9 9 9 9 8 7 7 6 6 7 6 6 6 6 7 7 6 5 4 4 2 2 2 2 2 4 6 6 6 7 8 9 10 11 11 11 10 9 9 8 8 7 7 7 7 7 7 7 7 7 7 7 7 7
28 28 28 27 27 26 26 25 24 24 24 23 22 21 21 20 19 17 16 16 15 14 15 15 14 14 13 13 13 12 11 11 11 10 10 9 7 6 6 7 7 7 6 6 6 7 7 6 5 4 4 3 2 3 2 3 4 5 6 7 7 9 10 11 11 12 12 11 10 10 10 10 9 8 8 7 8 7 7 6 6 6 6 6 6
27 28 29 29 29 28 27 27 26 25 26 25 24 24 24 23 21 20 18 17 16 16 16 16 15 14 13 13 13 13 12 12 12 11 11 10 8 8 8 8 8 7 7 6 6 7 6 6 6 4 4 3 2 2 3 3 5 4 5 6 7 8 9 9 10 10 10 10 10 10 11 11 11 10 9 9 9 8 7 7 6 6 5 5 6
27 28 30 30 30 29 29 29 27 27 28 27 27 27 26 25 23 21 20 18 17 17 16 16 15 14 13 13 13 13 13 13 12 12 11 10 10 9 9 8 8 8 8 7 7 7 7 6 6 4 4 4 3 1 0 2 5 4 2 2 4 6 8 9 9 9 9 9 9 10 11 11 11 10 10 10 10 9 8 8 7 6 6 7 7
29 29 30 30 30 30 30 29 29 29 29 29 28 28 27 25 23 21 20 18 17 16 15 15 15 15 14 13 13 13 13 13 13 13 12 11 10 10 9 9 8 8 9 8 8 8 7 7 6 4 4 4 3 3 2 1 3 5 2 1 1 3 5 6 8 10 10 10 10 10 11 11 10 9 10 10 9 9 9 9 8 8 8 8 8
29 30 30 30 31 31 31 31 31 30 30 30 30 29 26 24 22 20 19 18 16 15 16 16 16 16 15 14 14 14 13 14 14 13 12 11 10 10 10 9 9 9 9 9 8 8 7 7 6 5 4 4 3 3 3 0 1 5 2 1 1 1 2 3 9 10 8 9 10 11 11 11 10 9 9 9 9 9 9 9 9 9 9 9 9
29 30 31 32 32 32 32 32 32 32 32 32 31 29 26 23 21 19 18 17 15 15 17 18 17 17 16 16 15 14 14 14 14 14 13 11 10 11 10 10 9 9 9 9 9 7 7 7 6 5 4 4 3 2 3 2 1 3 2 1 1 1 1 3 8 7 7 8 9 10 11 11 11 10 10 10 10 10 9 9 9 9 9 9 10
30 32 33 33 33 32 33 33 33 33 33 33 32 30 27 25 24 22 21 20 18 18 19 19 17 17 16 15 15 15 15 15 15 14 13 12 11 10 10 10 10 10 9 9 8 7 7 7 6 5 4 4 4 3 4 4 3 3 3 2 2 1 1 4 3 3 7 9 7 9 10 11 11 11 11 11 11 11 11 11 10 10 10 10 11
31 32 32 33 33 32 33 33 33 34 33 33 33 32 29 27 26 26 25 25 23 22 21 19 17 16 16 15 15 15 16 16 16 15 14 12 10 10 9 10 10 10 9 9 8 6 6 6 6 6 5 4 4 4 5 5 5 4 5 5 4 3 5 4 1 1 5 6 9 11 9 9 10 10 10 11 11 12 12 12 12 12 11 11 11
31 31 31 32 33 33 33 34 34 34 34 34 35 34 31 30 29 28 26 26 25 24 22 20 18 16 17 17 16 16 16 16 16 15 14 13 10 10 10 10 11 10 10 9 7 6 5 6 6 7 6 5 4 4 6 7 7 6 5 5 5 5 7 5 3 2 1 2 8 9 8 10 10 9 9 9 10 11 12 12 13 13 13 12 12
32 32 32 33 33 33 33 34 34 34 34 35 36 35 33 32 31 29 28 27 25 24 22 20 18 18 18 19 18 17 17 17 17 16 15 14 12 10 10 11 11 10 10 9 7 6 6 6 6 7 7 7 6 5 5 7 8 7 5 5 5 6 6 5 2 2 1 1 3 4 6 10 10 10 9 9 10 10 11 12 12 13 13 12 12
32 32 33 32 33 33 32 33 34 34 34 36 37 36 34 33 33 31 30 28 25 23 22 21 20 19 20 21 21 20 18 17 18 17 16 15 13 12 11 11 11 10 10 9 8 7 6 6 6 6 7 8 7 7 6 6 7 7 6 6 6 5 5 3 1 0 0 1 2 3 6 7 8 9 9 10 11 11 10 11 11 12 12 12 12
32 32 32 32 33 34 34 35 35 34 34 36 37 37 35 34 34 33 31 30 27 24 23 22 21 21 22 23 22 21 20 19 18 18 18 17 15 14 13 11 11 10 10 10 9 7 7 6 6 6 7 8 8 8 7 6 6 5 6 6 6 4 4 3 3 2 3 2 2 4 7 7 7 7 8 10 10 10 10 10 10 11 11 11 12
Wind_Direction
148 142 138 137 135 131 129 130 128 127 127 128 127 126 126 126 126 125 126 127 129 129 131 131 130 127 126 125 124 123 121 122 122 120 119 118 118 118 116 115 115 115 116 116 118 116 112 111 111 113 116 117 117 115 114 114 111 108 106 106 106 104 104 103 101 100 100 100 101 103 105 106 104 101 100 102 105 104 103 103 100 94 89 89 91
148 143 140 137 136 131 130 132 129 128 128 129 128 127 127 128 128 128 129 129 130 130 130 127 124 122 120 119 117 116 115 114 116 117 117 118 120 119 117 116 115 115 116 115 118 119 116 115 117 119 123 123 120 118 115 115 115 110 108 108 107 106 105 104 103 102 102 102 102 102 104 106 104 103 103 105 107 105 104 104 99 93 91 92 91
145 145 140 136 136 131 132 135 132 131 132 131 129 130 130 131 131 130 130 129 128 128 125 122 119 116 115 113 113 112 110 110 111 113 114 116 120 121 120 119 119 118 117 116 118 121 120 118 118 121 122 122 121 120 117 120 121 114 111 111 109 108 105 106 106 105 105 104 104 102 101 101 101 102 104 105 106 105 104 103 97 93 94 95 92
145 143 137 136 135 130 136 139 135 134 136 135 132 133 133 132 130 127 127 127 125 123 120 117 115 113 112 111 109 109 108 110 110 111 114 116 118 118 119 120 122 122 121 121 122 122 123 122 121 120 119 119 119 120 120 122 121 115 115 112 107 107 105 108 108 107 106 106 104 104 102 99 101 102 103 105 105 105 104 101 95 94 97 98 97
144 142 139 138 135 132 139 141 138 137 137 138 136 135 133 130 127 125 125 123 122 118 116 115 113 111 109 108 108 109 111 111 112 113 115 115 114 114 117 121 124 124 122 119 118 118 121 121 121 119 118 118 116 118 120 121 121 119 119 113 108 109 106 104 105 106 105 105 103 102 102 100 100 102 102 103 104 104 104 101 94 95 99 101 99
145 143 140 137 134 135 142 142 139 138 138 139 138 136 132 130 126 124 122 119 119 116 116 114 111 111 108 107 107 107 108 110 111 110 110 110 111 112 115 118 118 115 114 112 109 113 116 117 121 122 122 118 114 118 122 124 125 122 119 114 112 112 108 107 110 109 106 105 102 100 100 99 98 98 98 100 102 103 102 99 96 98 101 101 99
146 143 139 136 136 140 145 142 140 140 141 142 139 137 135 130 128 125 121 118 117 116 116 114 112 111 108 105 105 104 104 108 110 108 108 109 109 108 109 110 109 108 109 110 108 112 116 120 125 125 121 116 115 119 123 126 126 122 117 113 111 110 112 117 116 111 108 105 102 99 98 96 96 96 96 97 100 101 99 96 98 102 103 102 98
147 144 140 140 142 146 147 143 142 141 143 147 142 139 136 131 130 127 120 119 119 118 118 116 114 111 106 104 103 103 104 107 109 109 108 107 105 103 103 103 102 103 105 105 106 108 112 119 123 121 116 114 119 122 120 120 122 120 114 111 109 113 120 121 116 112 109 105 102 100 98 97 97 97 97 98 99 99 98 98 100 102 103 103 99
148 145 144 146 148 148 147 145 144 142 145 149 145 140 136 135 135 129 122 123 123 121 121 118 115 110 106 103 99 97 97 99 103 104 105 102 99 98 96 96 96 98 100 98 100 101 105 113 115 113 114 118 122 119 117 116 118 118 115 115 118 123 124 118 115 112 107 103 101 100 99 100 100 100 100 101 102 101 101 101 102 104 105 104 100
149 148 149 150 149 149 147 146 144 144 146 148 147 143 141 142 140 132 127 130 127 124 125 122 117 111 104 100 97 93 91 92 96 97 99 99 96 95 93 94 95 94 94 94 94 96 100 106 107 105 110 118 116 112 114 118 120 122 124 124 127 126 120 116 114 110 106 104 102 101 101 102 101 101 103 104 104 102 102 102 105 107 107 104 100
152 152 153 151 150 150 148 146 145 145 147 149 149 148 147 147 141 135 134 136 131 128 127 124 118 110 102 98 95 92 90 91 96 97 98 98 96 95 92 88 89 89 90 90 91 91 90 93 98 100 104 110 109 109 112 117 121 122 123 122 124 120 116 116 113 109 107 106 104 104 103 103 102 102 106 106 105 104 104 106 109 109 108 103 97
155 155 154 153 152 151 148 146 147 148 149 152 153 152 150 147 142 138 140 139 134 129 126 122 116 107 101 97 94 92 92 94 98 100 97 96 96 95 93 88 88 90 90 89 87 87 85 85 89 96 104 108 106 107 108 110 112 111 110 112 114 113 115 116 111 109 109 107 106 105 104 103 103 104 107 108 107 108 108 111 112 110 106 100 94
156 156 157 156 156 154 149 147 151 153 152 154 155 154 151 147 141 141 144 142 138 131 123 119 112 104 100 98 96 96 98 98 100 102 98 95 97 95 94 95 95 97 94 88 84 82 84 88 90 93 101 105 104 106 107 104 101 100 102 105 109 111 115 114 111 112 111 109 108 105 105 104 104 107 108 108 108 109 111 113 112 108 103 98 93
157 157 159 159 157 155 153 152 155 157 154 154 155 154 152 148 143 142 144 142 140 132 124 117 112 107 104 102 100 103 106 106 105 104 100 99 102 101 99 101 103 101 96 89 84 83 86 91 92 93 96 100 98 99 101 100 97 98 101 105 109 112 115 114 114 114 113 110 108 107 106 106 106 107 108 108 109 110 112 112 110 106 103 99 96
158 158 160 159 158 157 157 156 157 158 155 156 156 155 153 148 143 143 144 142 141 135 129 122 119 117 113 109 107 108 109 108 105 103 103 104 104 102 103 105 105 100 95 91 87 84 86 90 92 90 92 95 95 95 96 97 98 99 101 105 108 111 115 116 116 116 113 110 108 107 104 104 107 109 110 110 111 112 113 112 109 107 104 100 97
159 160 160 158 160 159 159 161 162 158 154 158 159 157 157 152 147 145 144 142 138 137 134 131 131 127 122 117 111 109 108 107 103 103 105 105 104 102 103 106 103 97 91 89 88 86 85 85 87 86 88 92 94 96 96 96 96 96 97 101 107 112 116 117 118 118 114 112 110 107 104 105 109 110 112 113 113 114 114 114 110 108 105 100 97
162 161 160 158 161 161 163 164 160 155 154 160 162 162 162 158 155 150 147 142 139 141 140 139 139 136 130 121 115 112 110 107 103 105 106 105 103 103 103 100 95 92 88 84 84 86 86 84 83 83 85 88 90 93 94 94 94 92 93 97 106 115 120 118 118 118 116 115 114 110 108 109 110 110 113 115 115 117 117 115 111 108 103 99 95
163 163 161 159 160 161 162 158 156 156 157 162 165 168 167 163 161 157 152 148 146 149 147 144 143 141 133 125 121 118 115 110 106 106 109 106 103 101 99 96 91 89 87 83 82 83 87 88 86 84 86 87 88 91 92 92 91 91 91 93 103 116 123 122 120 120 118 116 114 112 110 110 111 112 115 116 119 121 119 116 113 109 104 99 92
164 166 164 161 160 159 158 155 159 161 161 164 168 170 168 166 162 158 156 153 154 154 153 149 147 145 135 131 129 122 117 112 106 103 104 103 101 99 95 96 94 90 87 82 81 81 86 88 84 84 86 89 89 91 94 92 91 92 91 90 99 115 122 123 124 124 121 119 115 113 113 113 114 115 117 119 123 125 123 120 115 110 104 98 93
165 168 166 164 162 160 159 159 163 164 164 165 167 167 166 168 162 160 158 153 157 158 155 152 148 144 137 136 129 119 116 114 108 100 97 97 96 96 95 98 96 93 90 83 78 79 85 86 83 83 83 87 88 86 91 96 93 91 94 94 98 110 117 121 127 130 128 125 121 118 117 117 117 119 123 125 128 127 124 118 110 103 99 99 96
166 169 168 166 166 164 164 165 166 167 168 167 167 167 166 169 165 161 157 154 162 161 157 151 140 139 138 133 125 119 119 118 112 103 95 94 94 95 98 101 101 102 97 89 81 80 87 88 85 84 82 83 83 80 83 94 95 93 94 93 96 107 114 122 133 139 137 132 129 128 125 126 127 128 130 128 126 122 118 113 104 95 95 98 93
166 169 170 170 171 170 171 170 170 171 171 170 170 169 169 170 168 163 159 163 165 158 156 151 143 141 138 132 128 125 121 115 111 107 98 95 94 93 98 103 106 106 102 97 87 84 89 88 84 82 81 79 78 78 80 89 91 87 84 85 97 107 115 126 136 145 147 143 140 134 128 129 132 133 134 129 123 119 115 110 103 93 91 91 83
168 170 173 175 175 175 177 175 174 174 173 174 171 170 171 169 167 163 162 167 163 157 156 150 146 144 138 137 136 131 125 117 114 112 106 101 96 93 96 101 105 103 104 104 94 88 86 84 82 80 77 74 74 77 80 85 83 76 72 84 101 106 111 124 137 147 152 155 153 144 134 133 133 133 136 135 129 125 120 112 104 91 81 77 71
171 173 175 177 179 179 179 178 178 176 174 174 171 171 171 166 164 163 165 167 163 158 156 148 143 144 143 144 141 135 132 126 120 119 116 111 107 106 104 104 105 104 111 113 104 95 87 83 83 82 77 71 72 75 77 80 76 75 77 87 98 102 104 116 136 148 154 161 162 153 145 146 141 136 140 145 144 138 132 120 107 91 79 71 62
172 175 176 178 181 182 181 179 179 178 175 175 173 172 169 164 164 165 167 167 164 159 154 146 141 145 147 147 144 139 137 131 125 124 123 119 117 117 113 111 108 105 113 117 113 105 92 85 82 82 79 73 70 66 65 63 66 77 93 100 98 99 103 110 128 146 155 162 164 156 154 160 161 157 160 173 173 171 178 140 111 94 74 61 48
174 177 179 181 181 182 183 180 180 179 177 178 175 173 169 166 167 169 171 169 166 161 155 149 145 146 148 149 148 145 142 135 130 130 130 126 123 123 116 113 112 108 110 112 113 110 98 84 79 78 75 71 62 54 47 32 27 44 75 92 89 95 103 110 121 142 157 167 168 160 163 175 179 176 179 193 204 210 222 192 117 76 41 36 33
176 181 182 181 181 183 185 183 182 181 181 181 178 175 172 171 172 172 174 170 166 163 159 152 147 147 149 151 152 150 146 139 135 136 136 133 128 126 120 116 114 109 108 110 111 112 102 88 77 63 50 41 33 39 40 11 344 337 9 54 62 74 91 107 123 145 167 178 176 167 173 182 182 183 185 193 212 220 219 220 89 50 30 22 14
176 182 184 182 182 184 186 186 184 183 184 184 180 179 177 175 175 174 175 171 166 164 159 153 149 149 150 151 151 149 147 142 139 139 140 140 135 131 126 122 119 116 117 118 119 115 106 97 84 48 18 357 352 7 17 356 326 302 303 334 13 41 56 83 128 203 213 204 193 181 181 188 189 192 195 202 229 243 249 295 6 31 28 3 350
178 182 185 185 185 185 186 187 187 186 186 186 184 182 180 178 178 177 174 172 167 165 161 159 157 156 154 150 148 148 145 143 141 142 143 139 137 136 134 132 129 129 130 130 130 124 113 110 97 41 342 323 320 325 328 320 308 292 284 297 323 3 16 21 233 235 234 221 208 190 185 192 192 197 207 215 239 264 293 311 344 354 7 349 331
182 184 186 187 188 188 188 189 189 189 190 190 187 185 182 182 183 179 176 173 169 168 168 167 166 162 161 155 149 149 145 141 139 140 141 139 139 140 142 143 140 140 139 141 142 128 111 98 81 34 334 316 306 305 307 301 290 283 276 280 295 329 330 282 241 233 232 224 221 208 189 194 192 194 207 224 250 266 294 308 329 337 346 330 317
183 184 187 188 188 190 191 192 192 191 193 194 191 188 185 185 185 181 178 176 172 173 175 174 172 168 165 158 152 151 147 144 141 140 142 141 143 147 153 154 151 150 151 152 148 117 81 56 44 33 5 345 323 304 300 292 274 267 264 264 270 288 289 267 244 232 231 227 233 233 207 202 215 221 229 271 301 271 281 297 316 320 320 313 316
185 187 188 188 187 190 193 194 195 194 196 198 195 190 188 188 187 183 181 179 176 177 180 181 177 172 169 161 157 156 154 153 147 143 145 144 148 158 169 171 167 166 165 162 154 120 68 44 38 27 9 355 332 307 295 282 262 254 250 250 255 267 278 271 256 244 242 240 244 251 240 225 231 260 281 290 297 291 293 311 312 303 305 305 307
188 190 190 189 188 190 193 196 197 198 199 199 197 193 190 190 189 186 184 181 180 181 185 188 184 179 175 168 166 165 163 165 159 153 152 153 158 169 180 180 173 175 180 179 177 178 138 31 29 15 359 344 328 306 283 265 255 251 248 251 252 256 268 271 266 257 251 251 253 258 259 254 248 260 275 279 282 287 299 306 301 296 297 297 301
186 190 190 189 188 189 192 196 198 201 202 201 198 194 192 191 191 191 189 185 183 184 187 191 190 186 183 176 174 174 171 170 172 168 167 169 172 178 184 180 179 183 189 196 200 204 216 286 333 343 347 338 323 305 281 259 253 253 250 255 256 258 264 267 272 265 257 256 258 263 267 272 272 271 273 274 274 276 281 285 287 290 293 295 299
185 188 190 190 188 188 191 195 199 203 204 203 200 196 193 192 192 193 193 190 188 189 189 192 194 193 191 183 179 181 178 177 184 185 184 183 183 187 187 186 196 195 197 211 220 227 241 264 293 320 334 326 312 308 293 260 246 250 251 253 256 260 264 269 274 271 270 268 268 274 278 283 284 283 283 282 281 278 276 276 279 283 288 292 293
187 188 189 189 188 189 191 195 199 202 204 204 201 199 196 192 194 195 197 197 195 195 194 196 199 201 202 196 189 189 187 186 191 192 190 188 188 191 195 204 212 211 218 231 233 240 256 275 295 309 314 309 306 318 313 260 235 241 248 253 256 259 264 271 275 277 280 280 281 283 284 287 288 289 290 289 288 285 283 281 282 285 286 289 290
190 190 189 188 189 190 192 195 199 200 203 204 202 201 198 195 196 198 201 203 203 203 201 203 206 209 211 207 200 196 195 194 197 197 193 193 196 198 204 215 223 229 236 238 237 246 259 274 290 294 291 289 298 322 323 252 227 236 245 252 260 262 267 272 276 280 282 282 287 288 291 294 292 291 292 293 293 291 290 289 289 290 290 291 292
193 192 192 191 190 192 193 196 199 199 201 203 202 203 201 199 200 202 206 209 211 211 211 212 213 215 216 213 209 204 202 202 204 204 199 199 203 205 212 221 231 237 238 240 243 251 258 266 274 274 273 275 279 314 321 249 224 234 246 255 263 267 273 277 277 278 279 284 290 292 295 296 295 294 292 295 296 296 297 297 296 293 293 295 297
194 194 194 193 191 193 194 196 200 200 200 202 203 203 204 204 204 208 213 215 218 219 218 219 218 220 219 217 215 210 206 209 212 211 208 210 213 215 221 228 236 238 239 247 250 253 256 259 262 255 255 260 258 279 303 258 225 232 249 261 269 274 278 279 279 278 280 285 289 292 295 293 294 297 296 297 297 302 305 305 304 300 299 300 300
195 194 194 193 192 192 194 196 201 201 199 200 203 205 206 208 209 213 217 218 219 221 222 222 223 223 222 220 217 213 210 211 216 218 219 222 223 228 234 234 239 242 244 250 252 252 251 251 252 243 236 238 242 247 263 256 227 230 245 256 270 280 284 284 283 282 283 288 292 295 296 294 292 293 297 300 300 304 310 312 312 309 305 304 305
194 193 192 193 194 193 194 197 200 201 199 200 202 204 205 207 211 214 215 215 216 221 224 225 226 225 224 223 218 215 213 213 216 219 223 226 228 237 244 240 243 248 247 250 253 252 247 244 243 235 226 216 210 245 265 234 213 220 240 253 268 278 285 291 291 291 290 293 297 299 299 297 294 291 292 295 298 302 307 312 315 317 319 319 319
193 193 193 194 194 194 196 198 200 201 200 201 202 204 205 206 208 209 211 213 216 222 226 227 228 226 226 224 220 218 217 216 217 219 223 226 230 240 244 244 249 250 246 246 249 249 246 242 239 230 215 200 183 189 217 187 200 201 201 258 281 288 290 293 295 297 301 301 300 303 306 306 303 297 290 289 293 300 305 308 311 319 325 328 329
193 195 195 194 194 195 197 198 200 202 202 202 203 205 207 208 210 209 208 214 220 224 228 230 229 228 228 226 223 221 219 219 219 221 225 228 233 240 242 244 247 245 243 242 242 244 244 242 240 227 207 197 173 156 152 127 182 173 129 22 341 327 309 303 307 304 300 300 302 307 312 317 318 304 290 288 292 298 304 307 311 317 322 326 329
193 195 195 194 194 196 197 198 201 204 204 202 203 207 209 212 216 216 215 219 225 228 229 231 231 229 229 227 224 220 219 220 220 222 226 230 236 240 242 243 240 238 241 240 240 243 243 242 235 223 210 202 182 164 183 302 162 163 120 42 104 14 332 329 332 322 307 298 300 308 313 318 321 307 292 291 297 301 304 305 308 314 318 322 326
194 196 196 195 196 197 198 199 201 204 205 203 203 206 210 211 212 213 214 217 222 223 222 224 227 227 227 227 225 220 219 220 222 224 227 233 239 242 243 242 237 237 239 240 244 248 247 244 231 217 215 213 209 192 199 234 238 187 168 109 62 15 257 327 337 332 328 316 301 306 312 315 317 309 298 295 298 301 303 306 309 313 317 321 325
196 198 198 198 198 198 199 199 201 203 204 203 202 204 209 208 204 202 203 205 209 213 217 220 224 224 225 226 225 224 224 222 223 225 228 233 238 241 240 237 236 237 241 245 248 248 247 245 235 222 220 226 229 230 227 235 244 228 224 247 321 350 296 331 347 329 332 333 325 321 318 318 317 311 304 299 299 299 301 307 311 314 319 323 326
198 200 199 200 199 199 199 199 201 203 203 203 202 204 208 207 204 204 205 205 206 211 218 223 227 227 227 227 226 226 227 225 224 224 225 230 235 236 234 231 233 237 242 248 247 245 245 243 240 234 230 233 236 241 245 245 247 239 232 252 283 310 316 320 266 287 331 334 335 337 336 333 328 319 313 306 302 301 302 305 309 315 319 322 324
199 199 199 200 200 199 200 200 201 202 202 202 203 205 207 207 206 207 210 211 212 215 218 222 227 230 229 228 228 227 227 226 224 223 222 225 229 231 230 229 232 236 241 246 243 241 245 242 241 240 237 238 241 246 246 244 249 248 238 252 275 304 321 317 273 270 257 303 322 333 349 353 350 347 338 327 317 311 308 307 307 313 317 319 321
199 199 200 201 200 200 200 200 201 200 200 201 202 206 209 209 208 209 211 214 216 218 220 222 226 229 230 230 230 229 228 228 225 223 222 223 226 227 228 230 231 233 236 240 240 238 241 239 238 242 242 243 248 251 249 247 250 253 258 271 280 295 313 323 304 258 192 233 304 314 342 351 357 6 6 354 344 331 320 315 312 314 319 322 322
199 200 201 201 200 199 199 200 201 200 199 200 202 205 208 209 211 212 212 212 213 216 218 221 224 227 229 230 231 230 230 229 226 223 221 221 223 224 226 227 226 229 232 237 238 237 238 237 237 242 242 247 252 254 258 258 252 253 265 278 286 295 307 319 331 27 273 307 275 294 332 343 340 355 13 7 357 350 337 328 324 326 327 327 325
199 199 201 201 199 199 199 201 202 201 200 200 201 204 208 210 212 213 214 213 212 211 213 216 219 222 225 227 229 230 230 229 227 223 220 219 220 222 223 223 225 228 232 236 238 236 239 242 245 248 246 251 256 255 258 260 249 243 255 267 277 291 302 310 329 8 12 345 309 309 330 333 316 327 358 360 355 355 351 346 343 342 338 333 329